x

8461490 - New London, Ct (nlnc3) Weather Station

11:54 - Fri 26th Aug 2016 All times are EDT. -4 hours from GMT.

  • Wind
  • Sea Temp 75°f
  • Ar Temp 75°f
  • Sea Pressure 1017.2mb
  • 8461490 - New London, Ct
  • 8461490 - New London, Ct

More Historic Weather Station data

Upgrade to MSW Pro to gain access to the past 30 days of data for over 8000 Wavebouys and Weather Stations around the globe.

Join Pro

Comparision Forecast

View Surf forecast
   
Sex 08/26 11:54  -  3 mph 1017.2mb 75f 75f
11:48 3 6 mph 1017.2mb 75f 76f
11:42 5 7 mph 1017.1mb 75f 76f
11:36 3 6 mph 1017.1mb 75f 76f
11:30  -  2 mph 1017.1mb 75f 76f
11:24 1 5 mph 1017mb 75f 76f
11:18 2 6 mph 1017mb 75f 76f
11:12 3 6 mph 1016.9mb 75f 76f
11:06 3 5 mph 1017mb 75f 76f
11:00 2 3 mph 1017mb 75f 77f
10:54 1 2 mph 1016.9mb 75f 77f
10:48 3
mph
1016.9mb 75f 77f
10:42 2 3 mph 1016.8mb 75f 77f
10:36 2
mph
1016.8mb 75f 77f
10:30 1 3 mph 1016.7mb 75f 77f
10:24 2 3 mph 1016.7mb 75f 77f
10:18  -  mph 1016.6mb 75f 77f
10:12  -  mph 1016.5mb 74f 78f
10:06  -  mph 1016.4mb 75f 78f
10:00  -  mph 1016.3mb 75f 78f
9:54  -  mph 1016.3mb 74f 78f
9:48 3 6 mph 1016.3mb 74f 78f
9:42 3 6 mph 1016.2mb 74f 78f
9:36 3 6 mph 1016.1mb 74f 78f
9:30 3 6 mph 1016.1mb 74f 78f
9:24 3 5 mph 1016mb 73f 78f
9:18  -  mph - 74f 77f
9:12  -  mph - 74f 78f
9:06  -  mph - 74f 78f
9:00 3
mph
- 74f 78f
8:54 3 5 mph - 74f 78f
8:48 2 3 mph 1015.7mb 74f 79f
8:42 1 2 mph 1015.6mb 74f 79f
8:36  -  5 mph 1015.6mb 73f 79f
8:30 2 3 mph - 74f 79f
8:24 2
mph
- 74f 80f
8:18  -  mph 1015.4mb 74f 80f
8:12  -  mph 1015.4mb 75f 80f
8:06  -  mph 1015.3mb 76f 81f
8:00 2 3 mph 1015.3mb 75f 81f
7:54 1 2 mph 1015.2mb 75f 81f
7:48  -  mph 1015.2mb 75f -
7:42  -  mph 1015.1mb 74f -
7:36  -  mph 1015.1mb 74f -
7:30 5
mph
1015.1mb 74f 80f
7:24 2 5 mph 1015.1mb 74f 80f
7:18 3 5 mph 1015mb 74f 80f
7:12 2 3 mph 1014.9mb 74f 80f
7:06 2 3 mph 1014.9mb 74f 80f
7:00 5 6 mph 1014.8mb 74f 80f
6:54 6 7 mph 1014.8mb 73f 80f
6:48 6 7 mph 1014.7mb 74f 79f
6:42 6 7 mph 1014.8mb 74f 79f
6:36 7 9 mph 1014.8mb 74f 80f
6:30 8 9 mph - 74f 80f
6:24 5 8 mph - 74f 84f
6:18  -  mph 1014.7mb 74f 83f
6:12  -  mph 1014.5mb 75f 82f
6:06  -  mph 1014.5mb 75f 83f
6:00  -  mph 1014.5mb 75f 82f
5:54  -  mph 1014.5mb 74f 84f
5:48 7 8 mph 1014.5mb 74f 84f
5:42 5 8 mph 1014.4mb 74f 86f
5:36 2 8 mph 1014.4mb 74f 86f
5:30 5 8 mph 1014.3mb 74f 86f
5:24 6 7 mph 1014.4mb 74f 85f
5:18 2 6 mph 1014.4mb 74f 86f
5:12 2 5 mph 1014.3mb 74f 85f
5:06 3 6 mph 1014.3mb 74f 86f
5:00 2 7 mph 1014.2mb 74f 83f
4:54 6 8 mph 1014.2mb 74f 82f
4:48 8 9 mph 1014.3mb 73f 81f
4:42 6 7 mph 1014.4mb 73f 81f
4:36 7 8 mph 1014.4mb 73f 82f
4:30 5 7 mph 1014.3mb 73f 84f
4:24 5 9 mph 1014.3mb 73f 84f
4:18 6 9 mph 1014.2mb 73f 85f
4:12 7 9 mph 1014.2mb 73f 84f
4:06 8 11 mph 1014.2mb 73f 84f
4:00 7 13 mph 1014.1mb 73f 84f
3:54 6 9 mph 1014.2mb 73f 84f
3:48 7 11 mph 1014.2mb 73f 84f
3:42 6 9 mph 1014.3mb 73f 84f
3:36 5 9 mph 1014.2mb 73f 84f
3:30 7 11 mph 1014.2mb 73f 83f
3:24 8 11 mph 1014.3mb 72f 83f
3:18 7 13 mph 1014.3mb 72f 83f
3:12 8 11 mph 1014.3mb 72f 83f
3:06 6 13 mph 1014.2mb 72f 83f
3:00 9 13 mph 1014.3mb 73f 82f
2:54 8 14 mph 1014.4mb 72f 83f
2:48 5 9 mph 1014.3mb 73f 83f
2:42 7 10 mph 1014.2mb 72f 82f
2:36 8 10 mph 1014.2mb 73f 80f
2:30 8 10 mph 1014.2mb 73f 81f
2:24 10 11 mph 1014.1mb 74f 82f
2:18 9 11 mph 1014.2mb 72f 80f
2:12 9 11 mph 1014.1mb 72f 80f
2:06 10
mph
1014mb 72f 80f
2:00 9 11 mph 1014mb 72f 80f
1:54 9 10 mph 1014mb 73f 81f
1:48 8 9 mph 1014.3mb 74f 81f
1:42 6 9 mph 1014.3mb 74f 81f
1:36 7 8 mph 1014.3mb 72f 82f
1:30 7 9 mph 1014.4mb 73f 82f
1:24 6 9 mph 1014.4mb 73f 82f
1:18 6 8 mph 1014.3mb 72f 83f
1:12 7 10 mph 1014.3mb 73f 82f
1:06 7 9 mph 1014.4mb 73f 80f
1:00 7 9 mph 1014.4mb 73f 80f
12:54 7 8 mph 1014.5mb 73f 81f
12:48 3 6 mph 1014.5mb 73f 82f
12:42 5 8 mph 1014.5mb 73f 81f
12:36 6 8 mph 1014.6mb 73f 80f
12:30 6 8 mph 1014.6mb 74f 80f
12:24 6 8 mph 1014.6mb 74f 80f
12:18 6 8 mph 1014.7mb 74f 80f
12:12 3 6 mph 1014.8mb 74f 80f
12:06 2 6 mph 1014.9mb 74f 80f
12:00 3 6 mph 1014.9mb 74f 80f
11:54 5 7 mph 1014.9mb 74f 80f
11:48 6 10 mph 1015mb 74f 80f
11:42 6 9 mph 1014.9mb 75f 80f
11:36 6 8 mph 1014.9mb 75f 80f
11:30 3 9 mph 1014.8mb 74f 80f
11:24 7 9 mph 1014.8mb 74f 80f
11:18 6 10 mph 1014.8mb 74f 80f
11:12 7 9 mph 1014.8mb 74f 80f
11:06 7 9 mph 1014.8mb 74f 79f
11:00 5 9 mph 1014.9mb 74f 79f
10:54 8 11 mph 1015.1mb 74f 78f
10:48 7 10 mph 1015.1mb 74f 78f
10:42 7 10 mph 1015.1mb 74f 78f
10:36 6 10 mph 1015.1mb 74f 78f
10:30 6 8 mph 1015mb 74f 78f
10:24 5 8 mph 1015mb 74f 78f
10:18 6 10 mph 1015mb 74f 77f
10:12 7 11 mph 1015.1mb 74f 77f
10:06 8 11 mph 1015.1mb 74f 77f
10:00 9 13 mph 1015.2mb 74f 78f
9:54 8 10 mph 1015.2mb 74f 78f
9:48 7 10 mph 1015.3mb 73f 78f
9:42 7 13 mph 1015.4mb 73f 78f
9:36 10 14 mph 1015.3mb 73f 77f
9:30 9 13 mph 1015.4mb 73f 78f
9:24 8 11 mph 1015.4mb 73f 78f
9:18 9 13 mph 1015.4mb 73f 77f
9:12 8 14 mph 1015.5mb 73f 77f
9:06 7 11 mph 1015.4mb 72f 77f
9:00 7 14 mph 1015.3mb 72f 77f
8:54 9 14 mph 1015.3mb 73f 77f
8:48 8 13 mph 1015.3mb 73f 77f
8:42 8 13 mph 1015.3mb 73f 77f
8:36 9 15 mph 1015.3mb 73f 77f
8:30 8 16 mph 1015.3mb 73f 77f
8:24 8 11 mph 1015.3mb 74f 77f
8:18 7 11 mph 1015.3mb 74f 77f
8:12 7 10 mph 1015.4mb 73f 77f
8:06 8 10 mph 1015.4mb 73f 76f
8:00 6 10 mph 1015.4mb 73f 76f
7:54 7 11 mph 1015.4mb 74f 76f
7:48 7 9 mph 1015.4mb 74f 76f
7:42 8 11 mph 1015.3mb 74f 76f
7:36 7 9 mph 1015.3mb 74f 76f
7:30 6 8 mph 1015.3mb 74f 76f
7:24 6 9 mph 1015.3mb 74f 76f
7:18 5 9 mph 1015.3mb 74f 76f
7:12 6 8 mph 1015.4mb 74f 75f
7:06 7 8 mph 1015.5mb 74f 75f
7:00 6 10 mph 1015.4mb 74f 75f
6:54 6 9 mph 1015.4mb 74f 75f
6:48 3 7 mph 1015.4mb 74f 74f
6:42 5 7 mph 1015.4mb 74f 74f
6:36 5 6 mph 1015.4mb 74f 74f
6:30 5 6 mph 1015.4mb 74f 74f
6:24 6 7 mph 1015.5mb 74f 74f
6:18 5 6 mph 1015.5mb 73f 74f
6:12 3 7 mph 1015.5mb 74f 74f
6:06 6 7 mph 1015.4mb 73f 74f
6:00 6 7 mph 1015.4mb 73f 74f
5:54 6 8 mph 1015.3mb 74f 74f
5:48 6 8 mph 1015.2mb 74f 74f
5:42 5 7 mph 1015.2mb 73f 74f
5:36 6 8 mph 1015.1mb 74f 74f
5:30 5 7 mph 1015.1mb 74f 74f
5:24 6 8 mph 1015.1mb 73f 74f
5:18 6 7 mph 1015mb 73f 74f
5:12 5 6 mph 1015.1mb 74f 74f
5:06 5 7 mph 1015.1mb 73f 74f
5:00 6 8 mph 1015mb 73f 74f
4:54 6 8 mph 1015.1mb 74f 74f
4:48 5 6 mph 1015.1mb 74f 74f
4:42 5 7 mph 1015.1mb 74f 74f
4:36 5 6 mph 1015.1mb 73f 74f
4:30 3 7 mph 1015.2mb 73f 74f
4:24 3 6 mph 1015.2mb 73f 74f
4:18 3 5 mph 1015.3mb 73f 74f
4:12 5 7 mph 1015.2mb 73f 74f
4:06 6 7 mph 1015.2mb 73f 74f
4:00 5 7 mph 1015.2mb 73f 74f
3:54 5 7 mph 1015.1mb 73f 74f
3:48 6 8 mph 1015.1mb 73f 74f
3:42 6 7 mph 1015.1mb 73f 74f
3:36 6 9 mph 1015.2mb 73f 74f
3:30 6 8 mph 1015.2mb 73f 74f
3:18 5 7 mph 1015.1mb 73f 75f
3:12 5 8 mph 1015.2mb 73f 75f
3:06 5 8 mph 1015.2mb 73f 75f
3:00 5 7 mph 1015.2mb 73f 75f
2:54 3 7 mph 1015.2mb 73f 75f
2:48 5 8 mph 1015.2mb 72f -
2:42 6 8 mph 1015.3mb 72f -
2:36 6 7 mph 1015.2mb 73f -
2:30 5 6 mph 1015.2mb 73f 75f
2:24 5 9 mph 1015.2mb 74f 75f
2:18 5 8 mph 1015.3mb 74f 75f
2:12 6 9 mph 1015.3mb 74f 75f
2:06 6 10 mph 1015.3mb 74f 75f
2:00 6 8 mph 1015.4mb 74f 75f
1:54 7 9 mph 1015.3mb 74f 75f
1:48 6 8 mph 1015.3mb 74f -
1:42 6 9 mph 1015.3mb 74f -
1:36 3 6 mph 1015.4mb 74f -
1:30 5 9 mph 1015.4mb 74f 75f
1:24 6 9 mph 1015.4mb 74f 75f
1:18 6 8 mph 1015.4mb 74f 75f
1:12 7 9 mph 1015.4mb 74f 76f
1:06 6 9 mph 1015.6mb 73f 76f
1:00 6 9 mph 1015.5mb 73f 76f
12:54 6 11 mph 1015.6mb 73f 76f
12:48 6 8 mph 1015.6mb 72f 76f
12:42 6 8 mph 1015.6mb 73f 76f
12:36 6 9 mph 1015.6mb 73f 75f
12:30 6 8 mph 1015.7mb 73f 75f
12:24 6 8 mph 1015.7mb 73f 75f
12:18 6 8 mph 1015.7mb 74f 76f
12:12 7 8 mph 1015.7mb 74f 76f
12:06 6 8 mph 1015.6mb 74f 76f
12:00 5 6 mph 1015.7mb 74f 76f
Qui 08/25 11:54 6 7 mph 1015.8mb 74f 76f
11:48 6 8 mph 1015.8mb 74f 76f
11:42 6 8 mph 1015.9mb 74f 76f
11:36 6 8 mph 1015.9mb 74f 76f
11:30 6 9 mph 1016mb 74f 76f
11:24 5 7 mph 1016mb 74f 76f
11:18 5 8 mph 1016mb 74f 76f
11:12 6 7 mph 1016.1mb 74f 76f
11:06 5 9 mph 1016.1mb 74f 76f
11:00 7 9 mph 1016.2mb 74f 76f
10:54 7 10 mph 1016.2mb 74f 76f
10:48 7 9 mph 1016.3mb 74f 76f
10:42 7 9 mph 1016.3mb 74f 76f
10:36 6 8 mph 1016.4mb 74f 76f
10:30 7 9 mph 1016.4mb 74f 75f
10:24 7 9 mph 1016.3mb 74f 75f
10:18  -  mph 1016.3mb 74f 74f
10:12  -  mph 1016.4mb 74f 74f
10:06  -  mph 1016.5mb 74f 74f
10:00  -  mph 1016.6mb 74f 74f
9:54  -  mph 1016.7mb 74f 74f
9:48  -  mph 1016.7mb 74f 74f
9:42  -  mph 1016.7mb 74f 74f
9:36  -  mph 1016.8mb 74f 74f
9:30 7 8 mph 1016.8mb 74f 74f
9:24 7 9 mph 1016.9mb 74f 74f
9:18  -  mph 1016.9mb 74f 74f
9:12  -  mph 1016.9mb 74f 74f
9:06  -  mph 1017mb 74f 74f
9:00 6 8 mph 1017mb 73f 75f
8:54 7 9 mph 1017mb 73f 75f
8:48  -  mph 1017.1mb 73f 76f
8:42  -  mph 1017.1mb 73f 76f
8:36  -  mph 1017mb 74f 76f
8:30 6 8 mph 1017mb 74f 76f
8:24 7 8 mph 1017mb 73f 76f
8:18  -  mph 1016.9mb 73f 75f
8:12  -  mph 1016.9mb 73f 75f
8:06  -  mph 1016.9mb 74f 75f
8:00  -  mph 1017mb 74f 75f
7:54  -  mph 1016.9mb 73f 75f
7:48 8 11 mph 1016.8mb 73f -
7:42 8 11 mph 1016.9mb 74f -
7:36 8 11 mph 1016.9mb 74f -
7:30 8 13 mph 1016.8mb 74f 76f
7:24 8 13 mph 1016.8mb 74f 76f
7:18  -  mph 1016.8mb 74f 76f
7:12  -  mph 1016.8mb 74f 76f
7:06  -  mph 1016.7mb 74f 76f
7:00  -  mph 1016.7mb 74f 76f
6:54  -  mph 1016.7mb 74f 77f
6:48  -  mph - 74f -
6:42  -  mph - 74f -
6:36  -  mph - 74f -
6:30 10 14 mph 1016.6mb 74f 78f
6:24 9 15 mph 1016.6mb 74f 78f
6:18  -  mph 1016.7mb 74f 78f
6:12  -  mph 1016.8mb 74f 78f
6:06  -  mph 1016.9mb 74f 78f
6:00 9 15 mph 1016.9mb 73f 78f
5:54 10 14 mph 1017mb 74f 78f
5:48 11 16 mph 1017.2mb 74f 78f
5:42 11 14 mph 1017.1mb 73f 79f
5:36 13 18 mph 1017.1mb 73f 78f
5:30 10 15 mph 1017mb 73f 79f
5:24 9 13 mph 1017mb 73f 78f
5:18 6 17 mph 1017mb 73f 79f
5:12 13 16 mph 1017mb 74f 78f
5:06 7 17 mph 1017.1mb 74f 79f
5:00 8 13 mph 1017.2mb 74f 79f
4:54 9 14 mph 1017.1mb 74f 78f
4:48 10 14 mph 1017.1mb 74f 78f
4:42 8 13 mph 1017.2mb 74f 79f
4:36 11 15 mph 1017.2mb 73f 79f
4:30 10 18 mph 1017.2mb 73f 79f
4:24 10 15 mph 1017mb 73f 79f
4:18 11 18 mph 1017mb 73f 79f
4:12 14 18 mph 1017.1mb 72f 78f
4:06 9 14 mph 1017.3mb 72f 79f
4:00 13 16 mph 1017.2mb 72f 80f
3:54 14 17 mph 1017.3mb 73f 79f
3:48 10 20 mph 1017.4mb 72f 80f
3:42 14 18 mph 1017.4mb 72f 79f
3:36 11 18 mph 1017.4mb 72f 79f
3:30 11 18 mph 1017.5mb 72f 79f
3:24 13 20 mph 1017.6mb 72f 79f
3:18 13 22 mph 1017.6mb 72f 79f
3:12 15 21 mph 1017.7mb 72f 79f
3:06 11 16 mph 1017.7mb 72f 80f
3:00 13 18 mph 1017.9mb 72f 80f
2:54 16 21 mph 1018.1mb 72f 80f
2:48 15 21 mph 1018mb 72f 80f
2:42 13 20 mph 1018.1mb 74f 80f
2:36 10 18 mph 1018.1mb 73f 80f
2:30 15 22 mph 1018.3mb 73f 80f
2:24 15 21 mph 1018.4mb 73f 79f
2:18 14 18 mph 1018.4mb 72f 79f
2:12 15 20 mph 1018.6mb 73f 80f
2:06 15 21 mph 1018.6mb 73f 80f
2:00 13 18 mph 1018.7mb 73f 80f
1:54 15 18 mph 1018.7mb 73f 80f
1:48 14 17 mph 1018.8mb 73f 80f
1:42 14 22 mph 1019mb 72f 80f
1:36 13 18 mph 1018.9mb 73f 79f
1:30 11 20 mph 1018.9mb 72f 80f
1:24 11 20 mph 1018.9mb 74f 80f
1:18 11 17 mph 1018.9mb 74f 79f
1:12 11 20 mph 1018.9mb 74f 80f
1:06 10 21 mph 1018.9mb 73f 80f
1:00 14 16 mph 1018.9mb 72f 80f
12:54 13 18 mph 1018.9mb 74f 80f
12:48 11 17 mph 1018.9mb 74f 79f
12:42 10 15 mph 1019mb 74f 80f
12:36 11 15 mph 1019mb 73f 79f
12:30 10 20 mph 1019.1mb 73f 78f
12:24 9 16 mph 1019mb 73f 79f
12:18 8 18 mph 1019.1mb 73f 79f
12:12 11 16 mph 1019.2mb 73f 78f
12:06 9 13 mph 1019.2mb 72f 78f
12:00 11 16 mph 1019.2mb 73f 78f
11:54 10 15 mph 1019.3mb 73f 78f
11:48 7 13 mph 1019.4mb 73f 79f
11:42 9 14 mph 1019.4mb 73f 78f
11:36 9 14 mph 1019.5mb 73f 78f
11:30 9 13 mph 1019.5mb 74f 78f
11:24 9 15 mph 1019.5mb 73f 78f
11:18 11 15 mph 1019.5mb 74f 78f
11:12 10 15 mph 1019.5mb 74f 78f
11:06 13 16 mph 1019.6mb 74f 77f
11:00 9 15 mph 1019.7mb 73f 77f
10:54 9 16 mph 1019.8mb 73f 77f
10:48 9 18 mph 1019.9mb 73f 77f
10:42 8 16 mph 1019.9mb 74f 77f
10:36 10 16 mph 1020mb 74f 76f
10:30 9 15 mph 1020mb 73f 76f
10:24 11 17 mph 1020mb 74f 76f
10:18 13 16 mph 1019.9mb 74f 76f
10:12 11 16 mph 1019.9mb 74f 76f
10:06 13 17 mph 1019.9mb 73f 76f
10:00 10 15 mph 1020mb 73f 75f
9:54 10 15 mph 1020mb 73f 75f
9:48 7 11 mph 1020mb 73f 75f
9:42 7 13 mph 1020.1mb 73f 75f
9:36 8 15 mph 1020.2mb 73f 75f
9:30 8 13 mph 1020.2mb 73f 75f
9:24 7 14 mph 1020.3mb 73f 75f
9:18 10 16 mph 1020.3mb 73f 74f
9:12 10 15 mph 1020.3mb 73f 74f
9:06 9 14 mph 1020.2mb 73f 74f
9:00 14 17 mph 1020.3mb 73f 73f
8:54 10 14 mph 1020.3mb 73f 74f
8:48 9 14 mph 1020.3mb 73f 74f
8:42 8 14 mph 1020.4mb 73f 74f
8:36 10 14 mph 1020.4mb 73f 73f
8:30 10 16 mph 1020.4mb 73f 73f
8:24 9 14 mph 1020.4mb 72f 73f
8:18 7 11 mph 1020.4mb 72f 73f
8:12 7 11 mph 1020.4mb 72f 73f
8:06 8 14 mph 1020.5mb 72f 73f
8:00 7 14 mph 1020.5mb 72f 73f
7:54 8 11 mph 1020.5mb 72f 73f
7:48 7 13 mph 1020.5mb 72f 73f
7:42 7 11 mph 1020.5mb 72f 73f
7:36 7 10 mph 1020.5mb 72f 73f
7:30 7 10 mph 1020.4mb 72f 73f
7:24 7 9 mph 1020.4mb 73f 73f
7:18 7 10 mph 1020.3mb 73f 73f
7:12 7 11 mph 1020.4mb 73f 72f
7:06 8 10 mph 1020.3mb 73f 72f
7:00 6 10 mph 1020.2mb 73f 72f
6:54 6 7 mph 1020.2mb 73f 72f
6:48 5 6 mph 1020.4mb 73f 72f
6:42 3 6 mph 1020.5mb 73f 72f
6:36 3 6 mph 1020.6mb 73f 71f
6:30 2 6 mph 1020.5mb 73f 71f
6:24 2 6 mph 1020.4mb 73f 71f
6:18 3 6 mph 1020.4mb 73f 71f
6:12 2 6 mph 1020.3mb 73f 71f
6:06 3 6 mph 1020.4mb 73f 71f
6:00 2 6 mph 1020.3mb 73f 71f
5:54 3 6 mph 1020.3mb 73f 71f
5:48 3 6 mph 1020.3mb 73f 71f
5:42 5 6 mph 1020.3mb 73f 71f
5:36 3 6 mph 1020.3mb 73f 71f
5:30 3 7 mph 1020.2mb 73f 71f
5:24 5 7 mph 1020.2mb 73f 71f
5:18 5 7 mph 1020.2mb 73f 71f
5:12 3 6 mph 1020.1mb 73f 71f
5:06 6 7 mph 1020.1mb 73f 72f
5:00 3 7 mph 1020.1mb 73f 71f
4:54 5 6 mph 1020mb 73f 71f
4:48 5 8 mph 1020mb 73f 72f
4:42 6 7 mph 1020mb 73f 71f
4:36 5 8 mph 1020.1mb 73f 71f
4:30 6 7 mph 1020mb 73f 72f
4:24 6 7 mph 1020mb 73f 72f
4:18 6 7 mph 1020.1mb 73f 72f
4:12 5 7 mph 1020.2mb 73f 72f
4:06 6 8 mph 1020.2mb 73f 72f
4:00 3 8 mph 1020.3mb 73f 72f
3:54 6 9 mph 1020.2mb 73f 72f
3:48 5 7 mph 1020mb 73f 72f
3:42 5 7 mph 1020.1mb 73f 72f
3:36 5 7 mph 1020.1mb 73f 72f
3:30 5 8 mph 1020mb 73f 72f
3:24 5 7 mph 1020mb 73f 72f
3:18 5 7 mph 1020mb 73f 72f
3:12 6 9 mph 1020mb 73f 72f
3:06 6 10 mph 1019.9mb 72f 72f
3:00 8 10 mph 1019.8mb 73f 72f
2:54 8 11 mph 1019.8mb 72f 72f
2:48 8 11 mph 1019.9mb 72f -
2:42 7 11 mph 1020.1mb 72f -
2:36 7 11 mph 1020.1mb 72f -
2:30 7 9 mph 1020.3mb 72f 72f
2:24 6 8 mph 1020.4mb 72f 72f
2:18 6 8 mph 1020.5mb 72f 72f
2:12 6 8 mph 1020.6mb 72f 72f
2:06 6 7 mph 1020.7mb 73f 72f
2:00 6 8 mph 1020.8mb 73f 72f
1:54 6 7 mph 1020.8mb 72f 72f
1:48 6
mph
1020.9mb 73f 72f
1:42 5 6 mph 1021mb 72f 72f
1:36 5 7 mph 1021mb 73f 72f
1:30 3 5 mph 1021mb 73f 72f
1:24 2 5 mph 1021.2mb 73f 71f
1:18 2 3 mph 1021.3mb 73f 71f
1:12 2 5 mph 1021.4mb 73f 71f
1:06 3 6 mph 1021.4mb 73f 71f
1:00 3 7 mph 1021.5mb 73f 71f
12:54 3 6 mph 1021.5mb 73f 71f
12:48 2 5 mph 1021.6mb 73f 71f
12:42 3 5 mph 1021.7mb 73f 71f
12:36 3 5 mph 1021.9mb 73f 71f
12:30 2 3 mph 1021.8mb 74f 71f
12:24 2 3 mph 1021.8mb 74f 71f
12:18 2 3 mph 1021.8mb 74f 71f
12:12 3 5 mph 1021.8mb 73f 71f
12:06 2 3 mph 1021.7mb 73f 71f
12:00 2 3 mph 1021.6mb 72f 71f
Qua 08/24 11:54 2 3 mph 1021.7mb 72f 71f
11:48 1 2 mph 1021.7mb 71f 71f
11:42 2
mph
1021.6mb 72f 71f
11:36 1 3 mph 1021.8mb 72f 72f
11:30 2 5 mph 1021.8mb 72f 72f
11:24 1 3 mph 1021.9mb 72f 72f
11:18 1 3 mph 1021.9mb 72f 72f
11:12 3 6 mph 1022mb 73f 72f
11:06 3 5 mph 1021.9mb 73f 72f
11:00 5 6 mph 1021.9mb 73f 72f
10:54 6
mph
1021.9mb 74f 72f
10:48 6 7 mph 1021.9mb 73f 72f
10:42 3 6 mph 1022mb 73f 73f
10:36 3 6 mph 1022mb 73f 72f
10:30 5 7 mph 1022mb 73f 72f
10:24 5 7 mph 1022mb 73f 73f
10:18  -  mph 1022.1mb 73f 73f
10:12  -  mph 1022.3mb 73f 73f
10:06  -  mph 1022.4mb 73f 73f
10:00  -  mph 1022.5mb 73f 73f
9:54  -  mph 1022.4mb 73f 73f
9:48  -  mph - 74f 73f
9:42  -  mph - 74f 73f
9:36  -  mph - 73f 73f
9:30 6 8 mph - 73f 73f
9:24 5 8 mph - 73f 74f
9:18  -  mph 1022.4mb 73f 74f
9:12  -  mph 1022.4mb 73f 74f
9:06  -  mph 1022.4mb 73f 74f
9:00 6 8 mph 1022.4mb 73f 74f
8:54 7 8 mph 1022.5mb 73f 74f
8:48 6 8 mph - 73f 74f
8:42 7 9 mph - 73f 74f
8:36 6 8 mph - 73f 74f
8:30 6 9 mph 1022.5mb 73f 74f
8:24 7 8 mph 1022.5mb 73f 75f
8:18  -  mph - 73f 75f
8:12  -  mph - 73f 75f
8:06  -  mph - 72f 75f
8:00 7 10 mph 1022.3mb 71f 75f
7:54 7 10 mph 1022.2mb 71f 75f
7:48  -  mph 1022.2mb 72f -
7:42  -  mph 1022.2mb 72f -
7:36  -  mph 1022.2mb 72f -
7:30 7 10 mph 1022.2mb 72f 76f
7:24 7 9 mph 1022.2mb 72f 76f
7:18  -  mph 1022.2mb 72f 77f
7:12  -  mph 1022.1mb 72f 77f
7:06  -  mph 1022.2mb 72f 77f
7:00  -  mph 1022mb 72f 78f
6:54  -  mph 1022mb 72f 77f
6:48  -  mph - 72f -
6:42  -  mph - 72f -
6:36  -  mph - 73f -
6:30 7 8 mph 1021.9mb 73f 76f
6:24 7 9 mph 1021.9mb 74f 77f
6:18  -  mph 1021.9mb 74f 76f
6:12  -  mph 1021.9mb 73f 76f
6:06  -  mph 1021.9mb 74f 76f
6:00 8 9 mph 1021.9mb 74f 76f
5:54 7 9 mph 1021.9mb 74f 77f
5:48  -  mph - 74f 77f
5:42  -  mph - 74f 77f
5:36  -  mph - 74f 76f
5:30 7 9 mph 1022.2mb 74f 77f
5:24 8 9 mph 1022.2mb 74f 77f
5:18 9 10 mph 1022.3mb 74f 77f
5:12 8 9 mph 1022.3mb 74f 76f
5:06 9 10 mph 1022.4mb 74f 76f
5:00 9 10 mph 1022.4mb 74f 76f
4:54 9 11 mph 1022.4mb 74f 76f
4:48 9 11 mph 1022.4mb 74f 76f
4:42 10 13 mph 1022.5mb 73f 75f
4:36 11 13 mph 1022.5mb 73f 75f
4:30 11 13 mph 1022.5mb 73f 76f
4:24 11 13 mph 1022.6mb 73f 75f
4:18 11 13 mph 1022.7mb 72f 75f
4:12 11 14 mph 1022.7mb 72f 76f
4:06 11 14 mph 1022.6mb 72f 76f
4:00 11 14 mph 1022.7mb 71f 76f
3:54 10 13 mph 1022.8mb 71f 77f
3:48 9 13 mph 1022.9mb 72f 79f
3:42 8 13 mph 1022.9mb 73f 82f
3:36 9 13 mph 1023mb 73f 82f
3:30 9 14 mph 1022.9mb 73f 82f
3:24 10 13 mph 1023mb 73f 81f
3:18 10 14 mph 1023mb 74f 82f
3:12 11 14 mph 1023.1mb 73f 81f
3:06 11 15 mph 1023.1mb 73f 82f
3:00 11 14 mph 1023.2mb 73f 82f
2:54 10 14 mph 1023.1mb 73f 82f
2:48 10 13 mph 1023.2mb 71f 81f
2:42 6 13 mph 1023.2mb 71f 83f
2:36 9 13 mph 1023.3mb 71f 82f
2:30 9 15 mph 1023.3mb 72f 82f
2:24 9 13 mph 1023.3mb 71f 82f
2:18 7 10 mph 1023.3mb 72f 83f
2:12 9 11 mph 1023.5mb 72f 82f
2:06 8 10 mph 1023.5mb 72f 82f
2:00 6 11 mph 1023.7mb 72f 83f
1:54 8 13 mph 1023.8mb 72f 82f
1:48 9 13 mph 1023.8mb 72f 82f
1:42 9 14 mph 1023.9mb 72f 81f
1:36 8 15 mph 1023.8mb 72f 82f
1:30 9 13 mph 1023.8mb 72f 82f
1:24 9 14 mph 1023.8mb 72f 81f
1:18 10 14 mph 1023.8mb 72f 82f
1:12 8 11 mph 1023.7mb 72f 82f
1:06 8 11 mph 1023.7mb 72f 82f
1:00 7 11 mph 1023.7mb 73f 82f
12:54 9 11 mph 1023.7mb 73f 82f
12:48 7 13 mph 1023.7mb 73f 81f
12:42 9 13 mph 1023.7mb 72f 81f
12:36 7 13 mph 1023.8mb 72f 82f
12:30 9 11 mph 1023.9mb 73f 81f
12:24 9 13 mph 1023.8mb 73f 81f
12:18 7 10 mph 1023.8mb 73f 82f
12:12 8 9 mph 1023.7mb 71f 81f
12:06 7 10 mph 1023.7mb 71f 81f
12:00 9 13 mph 1023.7mb 71f 82f
11:54 7 13 mph 1023.8mb 71f 81f
11:48 6 9 mph 1023.9mb 71f 82f
11:42 3 8 mph 1024mb 71f 82f
11:36 6 9 mph 1024.1mb 71f 81f
11:30 6 8 mph 1024.3mb 71f 81f
11:24 6 8 mph 1024.4mb 71f 81f
11:18 3 9 mph 1024.5mb 71f 81f
11:12 3 8 mph 1024.5mb 73f 82f
11:06 6 10 mph 1024.6mb 73f 80f
11:00 7 11 mph 1024.7mb 72f 80f
10:54 5 9 mph 1024.9mb 71f 80f
10:48 5 9 mph 1024.9mb 71f 80f
10:42 5 9 mph 1025mb 71f 80f
10:36 6 8 mph 1025.1mb 71f 79f
10:30 6 9 mph 1025.1mb 71f 79f
10:24 6 8 mph 1025.1mb 71f 79f
10:18 6 9 mph 1025.1mb 72f 78f
10:12 6 7 mph 1025.1mb 72f 78f
10:06 6 8 mph 1025.1mb 72f 77f
10:00 3 7 mph 1025.1mb 72f 78f
9:54 2 6 mph 1025.1mb 73f 77f
9:48 1 3 mph 1025mb 73f 75f
9:42 1 2 mph 1025.1mb 73f 73f
9:36 1 3 mph 1025.1mb 73f 73f
9:30 2 5 mph 1025mb 73f 73f
9:24 3 5 mph 1025mb 73f 73f
9:18 3 5 mph 1024.9mb 73f 71f
9:12 3
mph
1024.9mb 73f 71f
9:06 2 3 mph 1025.1mb 73f 72f
9:00 2 3 mph 1025mb 73f 71f
8:54 2 3 mph 1025mb 73f 71f
8:48 2 5 mph 1025mb 73f 71f
8:42  -  3 mph 1024.9mb 73f 71f
8:36 2 3 mph 1025mb 73f 70f
8:30 2 3 mph 1025mb 73f 71f
8:24 2
mph
1025.1mb 73f 70f
8:18 2 3 mph 1025.1mb 73f 69f
8:12 2
mph
1025.2mb 73f 69f
8:06 1 2 mph 1025.2mb 73f 68f
8:00 2 5 mph 1025.2mb 73f 67f
7:54 2 6 mph 1025.2mb 73f 67f
7:48 5 6 mph 1025.3mb 73f 66f
7:42 5 6 mph 1025.3mb 73f 66f
7:36 5 6 mph 1025.3mb 73f 66f
7:30 3 5 mph 1025.3mb 73f 66f
7:24 2 3 mph 1025.3mb 72f 66f
7:18 2 5 mph 1025.2mb 73f 66f
7:12 3 5 mph 1025.2mb 73f 65f
7:06 5
mph
1025.2mb 73f 65f
7:00 3 5 mph 1025.1mb 72f 65f
6:54 5 6 mph 1025.1mb 72f 65f
6:48 6
mph
1025mb 72f 65f
6:42 5 6 mph 1024.9mb 72f 65f
6:36 2 3 mph 1024.8mb 72f 65f
6:30 3 5 mph 1024.7mb 72f 64f
6:24 2
mph
1024.6mb 72f 64f
6:18 2
mph
1024.5mb 73f 64f
6:12 1 2 mph 1024.4mb 73f 64f
6:06 1 5 mph 1024.5mb 73f 64f
6:00 3 5 mph 1024.5mb 73f 64f
5:54 2 3 mph 1024.6mb 73f 64f
5:48 2 3 mph 1024.6mb 73f 65f
5:42 3
mph
1024.5mb 73f 65f
5:36 2 3 mph 1024.5mb 73f 65f
5:30 2
mph
1024.5mb 73f 65f
5:24 1 2 mph 1024.4mb 73f 65f
5:18  -  1 mph 1024.4mb 73f 64f
5:12 1 2 mph 1024.4mb 73f 65f
5:06 2 3 mph 1024.3mb 73f 65f
5:00 2 5 mph 1024.3mb 73f 65f
4:54 3 5 mph 1024.3mb 73f 65f
4:48 2 5 mph 1024.3mb 73f 65f
4:42 3 5 mph 1024.3mb 73f 65f
4:36 2 3 mph 1024.3mb 73f 65f
4:30 2 3 mph 1024.3mb 73f 65f
4:24 2
mph
1024.2mb 73f 65f
4:18 2 3 mph 1024.2mb 73f 66f
4:12 2 3 mph 1024.3mb 73f 66f
4:06 1
mph
1024.4mb 73f 66f
4:00 1 2 mph 1024.5mb 73f 66f
3:54  -  1 mph 1024.5mb 73f 66f
3:48  -  1 mph 1024.5mb 73f 66f
3:42  -  1 mph 1024.4mb 73f 65f
3:36 1 2 mph 1024.4mb 72f 65f
3:30 1 2 mph 1024.4mb 72f 66f
3:24 1
mph
1024.5mb 72f 66f
3:18  -  2 mph 1024.5mb 72f 66f
3:12  -  2 mph 1024.6mb 72f 66f
3:06  -  3 mph 1024.5mb 72f 66f
3:00 2 3 mph 1024.6mb 72f 66f
2:54 1 2 mph 1024.6mb 72f 66f
2:48 1 2 mph 1024.6mb 72f -
2:42 1 2 mph 1024.7mb 72f -
2:36 1 2 mph 1024.7mb 72f -
2:30  -  1 mph 1024.7mb 72f 67f
2:24  -  1 mph 1024.6mb 72f 67f
2:18  -  1 mph 1024.7mb 72f 67f
2:12  -  1 mph 1024.8mb 72f 67f
2:06  -  1 mph 1024.8mb 72f 67f
2:00  -  mph 1024.9mb 72f 67f
1:54  -  1 mph 1024.9mb 72f 67f
1:48  -  2 mph 1025mb 72f 67f
1:42  -  2 mph 1025.1mb 72f 68f
1:36 2 3 mph 1025.1mb 72f 68f
1:30 1 3 mph 1025.1mb 72f 68f
1:24 2 3 mph 1025mb 72f 68f
1:18 2 3 mph 1025mb 72f 68f
1:12 2 5 mph 1025.2mb 72f 68f
1:06 2 3 mph 1025.2mb 72f 68f
1:00 2 3 mph 1025.1mb 72f 69f
12:54 1 2 mph 1025mb 72f 69f
12:48 2 5 mph 1024.9mb 72f 69f
12:42  -  2 mph 1025mb 73f 69f
12:36  -  2 mph 1025.1mb 73f 69f
12:30 1 3 mph 1025.2mb 73f 69f
12:24 2 5 mph 1025.1mb 73f 69f
12:18 2 3 mph 1025.1mb 73f 69f
12:12 2 3 mph 1025mb 72f 69f
12:06 2 5 mph 1024.9mb 73f 69f
12:00 2 5 mph 1024.8mb 73f 69f
Ter 08/23 11:54 3 5 mph 1024.9mb 73f 69f
11:48 3 6 mph 1024.8mb 73f 69f
11:42 3 7 mph 1024.8mb 73f 69f
11:36 2 6 mph 1024.8mb 73f 69f
11:30 3 7 mph 1024.8mb 73f 70f
11:24 3 6 mph 1024.8mb 73f 70f
11:18 3 5 mph 1024.8mb 73f 70f
11:12 3 6 mph 1024.7mb 73f 70f
11:06 2 6 mph 1024.8mb 73f 70f
11:00 3 7 mph 1024.8mb 73f 70f
10:54 2 3 mph 1024.8mb 73f 70f
10:48 2 5 mph 1024.7mb 72f 70f
10:42 3 6 mph 1024.8mb 72f 70f
10:36 2 6 mph 1024.8mb 72f 70f
10:30 3 6 mph 1024.8mb 72f 70f
10:24 3 5 mph 1024.7mb 72f 70f
10:18 3 5 mph 1024.8mb 72f 70f
10:12 5 7 mph 1024.7mb 73f 70f
10:06 5 8 mph 1024.7mb 73f 70f
10:00 3 6 mph 1024.7mb 73f 70f
9:54 3 6 mph 1024.7mb 73f 70f
9:48 5 7 mph 1024.7mb 73f 70f
9:42 3 6 mph 1024.7mb 73f 70f
9:36 3 7 mph 1024.6mb 73f 70f
9:30 5 7 mph 1024.5mb 73f 71f
9:24 3 6 mph 1024.6mb 73f 71f
9:18  -  mph 1024.5mb 73f 71f
9:12  -  mph 1024.5mb 73f 71f
9:06  -  mph 1024.5mb 73f 71f
9:00  -  mph 1024.5mb 73f 71f
8:54  -  mph 1024.4mb 73f 71f
8:48 5 8 mph 1024.3mb 73f 71f
8:42 3 7 mph 1024.3mb 73f 71f
8:36 6 8 mph 1024.2mb 73f 71f
8:30  -  mph 1024.2mb 73f 71f
8:24  -  mph 1024.2mb 73f 71f
8:18  -  mph 1024.1mb 73f 72f
8:12  -  mph 1024mb 73f 72f
8:06  -  mph 1024mb 73f 72f
8:00 6 8 mph 1023.9mb 73f 72f
7:54 7 10 mph 1023.9mb 73f 72f
7:48 7 10 mph - 73f -
7:42 7 9 mph - 73f -
7:36 6 8 mph - 73f -
7:30 6 7 mph 1024mb 73f 73f
7:24 7 8 mph 1024mb 73f 74f
7:18  -  mph 1023.9mb 73f 74f
7:12  -  mph 1023.9mb 73f 74f
7:06  -  mph 1023.9mb 73f 74f
7:00 5 8 mph 1023.9mb 72f 74f
6:54 5 7 mph 1023.8mb 72f 74f
6:48  -  mph - 71f 74f
6:42  -  mph - 72f 74f
6:36  -  mph - 72f 74f
6:30 6 9 mph 1024mb 72f 75f
6:24 6 11 mph 1024mb 72f 75f
6:18 8 11 mph 1024mb 72f 75f
6:12 8 11 mph 1024.1mb 71f 75f
6:06 7 10 mph 1024.2mb 72f 76f
6:00  -  mph 1024.3mb 72f 76f
5:54  -  mph 1024.3mb 72f 75f
5:48 8 13 mph - 72f 76f
5:42 8 14 mph - 73f 76f
5:36 9 14 mph - 72f 76f
5:30 7 11 mph 1024.2mb 72f 77f
5:24 7 15 mph 1024.3mb 73f 77f
5:18 9 14 mph 1024.2mb 73f 76f
5:12 7 11 mph 1024.2mb 73f 77f
5:06 8 11 mph 1024.3mb 73f 77f
5:00 6 11 mph 1024.4mb 73f 77f
4:54 7 11 mph 1024.4mb 73f 76f
4:48 9 13 mph 1024.4mb 73f 77f
4:42 7 11 mph 1024.5mb 73f 76f
4:36 9 11 mph 1024.5mb 73f 76f
4:30 8 13 mph 1024.5mb 73f 76f
4:24 9 13 mph 1024.5mb 73f 76f
4:18 8 11 mph 1024.6mb 73f 76f
4:12 9 13 mph 1024.6mb 73f 76f
4:06 9 14 mph 1024.6mb 73f 76f
4:00 9 15 mph 1024.6mb 73f 76f
3:54 7 13 mph 1024.6mb 73f 76f
3:48 8 15 mph 1024.6mb 73f 76f
3:42 11 15 mph 1024.7mb 73f 76f
3:36 13 15 mph 1024.8mb 73f 76f
3:30 10 16 mph 1024.8mb 72f 75f
3:24 11 16 mph 1024.9mb 72f 75f
3:18 8 11 mph 1024.8mb 72f 76f
3:12 9 15 mph 1024.9mb 71f 76f
3:06 8 13 mph 1024.9mb 71f 76f
3:00 9 13 mph 1025mb 72f 76f
2:54 7 11 mph 1025mb 72f 76f
2:48 9 15 mph 1025.1mb 72f 74f
2:42 11 16 mph 1025.2mb 73f 75f
2:36 8 13 mph 1025.1mb 73f 75f
2:30 10 15 mph 1025.2mb 73f 75f
2:24 10 14 mph 1025.3mb 73f 75f
2:18 11 15 mph 1025.3mb 73f 75f
2:12 11 16 mph 1025.3mb 72f 74f
2:06 13 14 mph 1025.4mb 73f 74f
2:00 13 15 mph 1025.4mb 73f 74f
1:54 11 15 mph 1025.4mb 72f 74f
1:48 10 14 mph 1025.5mb 72f 75f
1:42 11 14 mph 1025.5mb 72f 74f
1:36 10 14 mph 1025.6mb 72f 74f
1:30 11 15 mph 1025.6mb 72f 74f
1:24 11 14 mph 1025.6mb 71f 73f
1:18 13 15 mph 1025.7mb 71f 72f
1:12 11 14 mph 1025.7mb 71f 72f
1:06 13 15 mph 1025.7mb 72f 72f
1:00 11 15 mph 1025.7mb 72f 73f
12:54 13 14 mph 1025.8mb 72f 71f
12:48 13 15 mph 1025.8mb 72f 72f
12:42 13 15 mph 1025.8mb 72f 71f
12:36 14 15 mph 1025.9mb 72f 71f
12:30 13 14 mph 1025.9mb 72f 71f
12:24 11 13 mph 1025.9mb 72f 71f
12:18 11 14 mph 1025.9mb 72f 72f
12:12 11 13 mph 1025.9mb 72f 72f
12:06 11 14 mph 1025.9mb 72f 71f
12:00 11 13 mph 1025.9mb 72f 71f
11:54 10
mph
1025.9mb 72f 72f
11:48 9 13 mph 1025.9mb 72f 73f
11:42 6 8 mph 1025.9mb 72f 73f
11:36 2 5 mph 1026mb 71f 73f
11:30 2 5 mph 1026mb 71f 74f
11:24 2 5 mph 1026mb 71f 73f
11:18 3 5 mph 1026mb 71f 72f
11:12 3 5 mph 1026mb 71f 72f
11:06 2 6 mph 1026.1mb 71f 72f
11:00 3 5 mph 1026.2mb 71f 71f
10:54 2 5 mph 1026.2mb 71f 71f
10:48 3 6 mph 1026.2mb 71f 71f
10:42 3 5 mph 1026.3mb 71f 71f
10:36 3 5 mph 1026.3mb 71f 70f
10:30 3 5 mph 1026.2mb 71f 70f
10:24 3 6 mph 1026.2mb 71f 70f
10:18 3 5 mph 1026.2mb 71f 69f
10:12 3 5 mph 1026.2mb 71f 69f
10:06 3 5 mph 1026.2mb 71f 69f
10:00 3 5 mph 1026.2mb 71f 68f
9:54 3 5 mph 1026.1mb 71f 68f
9:48 2 5 mph 1026.1mb 71f 69f
9:42 3 6 mph 1026.1mb 71f 68f
9:36 3 6 mph 1026.1mb 71f 67f
9:30 3 6 mph 1026.1mb 71f 67f
9:24 2 5 mph 1026mb 71f 68f
9:18 2 5 mph 1026mb 71f 67f
9:12 2 5 mph 1025.9mb 71f 67f
9:06 3 5 mph 1025.9mb 72f 66f
9:00 1 5 mph 1025.9mb 72f 66f
8:54 2 5 mph 1025.9mb 72f 65f
8:48 2 5 mph 1025.9mb 72f 65f
8:42 3 5 mph 1025.9mb 72f 64f
8:36 3 5 mph 1025.9mb 72f 64f
8:30 2 5 mph 1025.9mb 72f 64f
8:24 2 5 mph 1025.9mb 72f 63f
8:18 2 6 mph 1025.8mb 72f 63f
8:12 2 5 mph 1025.8mb 72f 63f
8:06 5 6 mph 1025.7mb 72f 62f
8:00 3 6 mph 1025.7mb 72f 62f
7:54 3 6 mph 1025.7mb 72f 62f
7:48 5 6 mph 1025.6mb 72f 61f
7:42 5 6 mph 1025.5mb 72f 61f
7:36 3 6 mph 1025.5mb 72f 61f
7:30 3 7 mph 1025.5mb 72f 61f
7:24 3 6 mph 1025.6mb 72f 61f
7:18 5 6 mph 1025.4mb 72f 61f
7:12 3 6 mph 1025.3mb 72f 60f
7:06 5 7 mph 1025.3mb 72f 60f
7:00 3 7 mph 1025.3mb 72f 60f
6:54 5 7 mph 1025.3mb 72f 59f
6:48 3 6 mph 1025.2mb 72f 59f
6:42 3 5 mph 1025.2mb 72f 59f
6:36 3 6 mph 1025.2mb 72f 58f
6:30 3 6 mph 1025mb 73f 58f
6:24 3 6 mph 1024.9mb 73f 57f
6:18 3 7 mph 1024.9mb 73f 57f
6:12 6 7 mph 1024.8mb 73f 57f
6:06 5 6 mph 1024.7mb 73f 57f
6:00 5 8 mph 1024.6mb 73f 57f
5:54 6 8 mph 1024.5mb 73f 57f
5:48 6 8 mph 1024.4mb 73f 57f
5:42 6 7 mph 1024.3mb 73f 57f
5:36 5 7 mph 1024.2mb 73f 58f
5:30 5 8 mph 1024.2mb 73f 58f
5:24 6 8 mph 1024.2mb 73f 58f
5:18 5 8 mph 1024.1mb 73f 58f
5:12 5 6 mph 1024mb 72f 58f
5:06 5 7 mph 1023.9mb 72f 58f
5:00 5 7 mph 1023.8mb 72f 58f
4:54 5 6 mph 1023.7mb 72f 58f